OBJECT AH, 63241

Orbit data source: Space-Track

You're viewing an uncataloged RSO

Recently launched and/or uncataloged RSOs may have evolving metadata. Metadata may include the following, but is not limited to: Owner, Manufacturer, Bus, Motor, and Mission.

OBJECT AH, 63241 is a satellite in SSO that was launched on Sat, 15 Mar 2025 UTC via an FALCON 9 launch vehicle from the Air Force Western Test Range (AFWTR). Unknown objects in Earth's orbit typically refer to objects detected orbiting the Earth but have not yet been identified or cataloged. These objects could be anything from previously untracked satellites, spent rocket stages, debris from satellite collisions, or even natural meteoroids temporarily captured by Earth's gravity.

Loading next visibility...
Identifier
63241, 2025-052AH
Orbit
SSO
Country
Flag of TBDTBD
Related business
None
Manufacturer
Unknown
Mission
Operational Commercial Technology
Bus & Motor
Unknown
Mass
Unknown
Launch date (UTC)
2025-03-15 (2 years ago)
Launch vehicle
FALCON 9
Launch site
Air Force Western Test Range (AFWTR)
Object type
Unknown
Shape & HBR
Box, 0.2 m
Radar Cross Section
0.035 m², Medium (>0.1 m² and < 1m²)

Expand to show TLE details & history
Last TLE update: 17 hours ago

TLE from 17 hours ago
0 OBJECT AH
1 63241U 25052AH  26264.70382738  .00007348  00000-0  26008-3 0  9999
2 63241  97.3695 157.2774 0006909 160.3795 199.7712 15.29415244 84684
Epoch: 2026-09-21T16:53Z
TLE epoch observation values (Epoch: 2026-09-21T16:53:30.685Z)
Latitude
-0.00008°
Longitude
-96.68029°
Altitude
485.122 km
Speed
7.62 km/s
True Right ascension
10h 29m 06s
True Declination
0° 00' 00"
Sunlit
Object was in daylight at epoch
Visualization orbit readout
Latitude
Unknown
Longitude
Unknown
Altitude
Unknown
Speed
Unknown
Apparent Right ascension
Unknown
Apparent Declination
Unknown
Sunlit
N/A
Visualization observer readout
Local Sidereal Time
02:53:01
Azimuth
Unknown
Elevation
Unknown
Doppler factor
Unknown
Orbital elements
Apogee altitude
479.245 km
Perigee altitude
469.776 km
Semi-major axis
6,852.648 km
Eccentricity
0.00069
Inclination
97.3695°
RAAN
157.2774°
Arg. of periapsis
160.3795°
True anomaly
199.74444°
Mean anomaly
199.7712°
Eccentric anomaly
199.75782°
Mean motion
3.82609 °/min
Orbital period
94.09 mins
BSTAR
0.00026008
Loading maneuver chart data...
Computing Atmospheric mass density...
Loading historical data...
Loading historical data...
Loading historical data...
Loading historical data...
Loading historical data...
Loading historical data...
Loading historical data...

Documentation

Showing up to 5 results
|